Content
SEND FEEDBACK

Daily
Averages
Monthly
Summary
Canada

VANCOUVER, BRITISH COLUMBIA


Home > North America > Canada > British Columbia
Elevation: 7 feet     Latitude: 49 11N     Longitude: 123 10W

WEATHER
 
SELECT A DAY
Number of Records: 249,842;   Date Range: 5/15/97 - 9/17/14
 
SHARE

PRINT THIS DATA

[ ← Previous Day ]
WEATHER ALMANAC - APRIL 16, 2014
[ Next Day → ]
[ °C ]   °F
Weather ElementAverageHighLow
Temperature49.6 °F53.6 °F (3:15 pm)46.4 °F (12:35 am)
Dewpoint47.3 °F50 °F (10:35 pm)44.6 °F (1:55 am)
Humidity92 %100 % (12:35 am)77 % (3:55 pm)
Barometer29.98 in30.04 in (12:35 am)29.87 in (11:35 pm)
Wind Speed6.8 mph15 mph (11:55 am)
Wind Gust19.6 mph (12:15 pm)
Weather ElementAverage
Visibility6.3 mi
Wind DirectionSSE (147 °)

Weather ElementTotal
Precipitation---
Heating Degree Days15 (Base 65)
Averaged from 71 records on April 16, 2014
WEATHER CONDITIONS BREAKOUT
WIND DIRECTION BREAKOUT
WEATHER BY HOUR - APRIL 16, 2014
[ °C ]   °F
Local TimeTemperatureDewpointHumidityBarometerVisibilityWind DirectionWind SpeedGust SpeedPrecipitationEventsConditions
12:35 AM46.4 °F46.4 °F100 %30.04 in5.0 miCalmRainLight Rain
12:55 AM46.4 °F46.4 °F100 %30.03 in4.0 miCalmRainLight Rain
1:15 AM46.4 °F46.4 °F100 %30.03 in3.0 miCalmRainLight Rain
1:35 AM46.4 °F46.4 °F100 %30.03 in4.0 miCalmRainLight Rain
1:55 AM46.4 °F44.6 °F93 %30.03 in3.0 miCalmRainRain
2:15 AM46.4 °F44.6 °F93 %30.02 in4.0 miCalmRainLight Rain
2:35 AM46.4 °F44.6 °F93 %30.02 in6.0 miCalmRainLight Rain
2:55 AM46.4 °F46.4 °F100 %30.01 in6.0 miSouth (190°)3.5 mphRainLight Rain
3:15 AM48.2 °F46.4 °F93 %30.01 in5.0 miSouth (190°)8.1 mphRainLight Rain
3:35 AM48.2 °F46.4 °F93 %30.01 in6.0 miSouth (190°)6.9 mphRainLight Rain
3:55 AM48.2 °F46.4 °F93 %30.01 in6.0 miSouth (190°)5.8 mphRainLight Rain
4:15 AM46.4 °F46.4 °F100 %30.01 in5.0 miSouth (190°)6.9 mphRainLight Rain
4:35 AM48.2 °F46.4 °F93 %30.01 in5.0 miSouth (190°)6.9 mphRainLight Rain
4:55 AM48.2 °F46.4 °F93 %30.01 in5.0 miSSW (200°)9.2 mphRainLight Rain
5:15 AM48.2 °F46.4 °F93 %30.01 in5.0 miSSW (210°)11.5 mphRainLight Rain
5:35 AM48.2 °F46.4 °F93 %30.00 in5.0 miSouth (190°)10.4 mphRainLight Rain
5:55 AM48.2 °F46.4 °F93 %30.00 in5.0 miSSW (200°)10.4 mphRainLight Rain
6:15 AM48.2 °F46.4 °F93 %30.00 in5.0 miSSW (200°)9.2 mphRainLight Rain
6:35 AM48.2 °F46.4 °F93 %30.00 in5.0 miSouth (180°)9.2 mphRainLight Rain
6:55 AM48.2 °F46.4 °F93 %30.00 in5.0 miSouth (190°)10.4 mphRainLight Rain
7:15 AM48.2 °F46.4 °F93 %30.00 in4.0 miSSW (200°)9.2 mphRainLight Rain
7:35 AM48.2 °F46.4 °F93 %30.00 in4.0 miSouth (190°)8.1 mphRainLight Rain
7:55 AM48.2 °F46.4 °F93 %30.00 in5.0 miSouth (190°)10.4 mphRainLight Rain
8:15 AM48.2 °F46.4 °F93 %30.00 in5.0 miSSW (200°)10.4 mphRainLight Rain
8:35 AM48.2 °F46.4 °F93 %30.00 in5.0 miSouth (190°)10.4 mphRainLight Rain
8:55 AM48.2 °F48.2 °F100 %30.00 in5.0 miSouth (190°)5.8 mphRainLight Rain
9:15 AM48.2 °F48.2 °F100 %30.00 in6.0 miSouth (180°)5.8 mphRainLight Rain
9:35 AM48.2 °F48.2 °F100 %30.00 in7.0 miSSE (160°)3.5 mphRainLight Rain
9:55 AM48.2 °F48.2 °F100 %30.01 in4.0 miSouth (190°)5.8 mphRainLight Rain
10:15 AM48.2 °F48.2 °F100 %30.01 in4.0 miNorthRainLight Rain
10:35 AM50.0 °F48.2 °F94 %30.01 in4.0 miCalmRainLight Rain
10:55 AM50.0 °F48.2 °F94 %30.01 in5.0 miSouth (170°)4.6 mphRainLight Rain
11:15 AM50.0 °F48.2 °F94 %30.00 in7.0 miSouth (170°)3.5 mphOvercast
11:35 AM50.0 °F48.2 °F94 %30.00 in9.0 miSouth (170°)6.9 mphMostly Cloudy
11:55 AM50.0 °F46.4 °F87 %29.99 in10.0 miSouth (190°)15.0 mphOvercast
12:15 PM50.0 °F46.4 °F87 %30.00 in10.0 miSouth (180°)9.2 mph19.6 mphOvercast
12:35 PM50.0 °F48.2 °F94 %29.99 in9.0 miSouth (170°)8.1 mphOvercast
12:55 PM50.0 °F48.2 °F94 %29.99 in10.0 miSouth (180°)6.9 mphOvercast
1:15 PM50.0 °F46.4 °F87 %29.99 in10.0 miSouth (170°)9.2 mphOvercast
1:35 PM50.0 °F46.4 °F87 %29.99 in10.0 miSouth (180°)9.2 mph18.4 mphOvercast
1:55 PM50.0 °F46.4 °F87 %29.99 in10.0 miSouth (180°)6.9 mphOvercast
2:15 PM51.8 °F46.4 °F82 %29.99 in10.0 miSouth (190°)11.5 mph17.3 mphOvercast
2:35 PM51.8 °F46.4 °F82 %29.99 in9.0 miSouth (190°)8.1 mphOvercast
2:55 PM51.8 °F46.4 °F82 %29.99 in9.0 miSouth (190°)10.4 mphOvercast
3:15 PM53.6 °F48.2 °F82 %29.98 in10.0 miSSW (200°)9.2 mphOvercast
3:35 PM51.8 °F46.4 °F82 %29.98 in9.0 miSSE (160°)6.9 mphOvercast
3:55 PM53.6 °F46.4 °F77 %29.97 in10.0 miSouth (190°)11.5 mphOvercast
4:15 PM53.6 °F48.2 °F82 %29.97 in10.0 miSouth (180°)10.4 mph16.1 mphOvercast
4:35 PM53.6 °F46.4 °F77 %29.97 in10.0 miSouth (180°)8.1 mphOvercast
4:55 PM53.6 °F48.2 °F82 %29.97 in10.0 miSouth (190°)8.1 mphOvercast
5:15 PM53.6 °F48.2 °F82 %29.96 in9.0 miSSW (200°)10.4 mphOvercast
5:35 PM53.6 °F48.2 °F82 %29.96 in10.0 miSouth (190°)10.4 mphMostly Cloudy
5:55 PM53.6 °F48.2 °F82 %29.96 in10.0 miSouth (190°)8.1 mphMostly Cloudy
6:15 PM51.8 °F48.2 °F88 %29.96 in9.0 miSouth (190°)9.2 mphOvercast
6:35 PM51.8 °F48.2 °F88 %29.95 in9.0 miSouth (190°)9.2 mphMostly Cloudy
6:55 PM51.8 °F48.2 °F88 %29.95 in5.0 miSouth (180°)6.9 mphRainLight Rain
7:15 PM50.0 °F48.2 °F94 %29.95 in5.0 miSouth (190°)8.1 mphRainLight Rain
7:35 PM50.0 °F48.2 °F94 %29.94 in4.0 miSouth (180°)6.9 mphRainLight Rain
7:55 PM50.0 °F48.2 °F94 %29.94 in2.0 miSouth (180°)8.1 mphRainRain
8:15 PM50.0 °F48.2 °F94 %29.93 in5.0 miSouth (180°)8.1 mphRainLight Rain
8:35 PM50.0 °F48.2 °F94 %29.93 in4.0 miSouth (190°)8.1 mphRainLight Rain
8:55 PM50.0 °F48.2 °F94 %29.93 in5.0 miSSW (200°)8.1 mphRainLight Rain
9:15 PM50.0 °F48.2 °F94 %29.92 in8.0 miSSW (200°)5.8 mphRainLight Rain
9:35 PM50.0 °F48.2 °F94 %29.92 in7.0 miNorthRainLight Rain
9:55 PM50.0 °F48.2 °F94 %29.92 in5.0 miNorthRainLight Rain
10:15 PM50.0 °F48.2 °F94 %29.91 in5.0 miCalmRainLight Rain
10:35 PM50.0 °F50.0 °F100 %29.90 in2.5 miCalmRainRain
10:55 PM50.0 °F48.2 °F94 %29.89 in4.0 miCalmRainLight Rain
11:15 PM48.2 °F48.2 °F100 %29.88 in4.0 miCalmRainLight Rain
11:35 PM50.0 °F50.0 °F100 %29.87 in5.0 miSouth (170°)4.6 mphRainLight Rain
11:55 PM50.0 °F48.2 °F94 %29.87 in5.0 miSouth (180°)6.9 mphRainLight Rain
Hourly data recorded from CZBB, located miles away from Vancouver, British Columbia







STORIES FROM OUR PARTNERS